GFSGL_500_temp_273.txt.gz
Temp
-21 -23 -24 -24 -23 -22 -22 -22 -21 -21 -20 -19 -18 -17 -17 -17 -17 -18 -16 -15 -14 -14 -14 -14 -14 -13 -13 -13 -14 -14 -14 -15 -15 -15 -15 -15 -15 -16 -16 -16 -16 -17 -17
-21 -23 -24 -24 -23 -22 -22 -21 -21 -20 -20 -19 -18 -18 -17 -17 -17 -17 -18 -16 -15 -14 -14 -14 -13 -13 -14 -14 -14 -14 -14 -14 -15 -15 -16 -16 -15 -16 -16 -16 -17 -17 -17
-21 -22 -23 -23 -23 -22 -22 -21 -21 -20 -19 -19 -19 -18 -18 -18 -17 -17 -18 -17 -16 -16 -15 -14 -14 -14 -15 -14 -14 -14 -14 -15 -15 -16 -16 -16 -16 -16 -16 -17 -17 -17 -17
-20 -21 -22 -22 -23 -23 -22 -22 -21 -21 -20 -20 -20 -20 -19 -18 -18 -17 -18 -18 -17 -15 -14 -15 -14 -14 -15 -15 -14 -14 -14 -14 -15 -15 -16 -16 -16 -17 -17 -16 -17 -17 -17
-20 -20 -21 -22 -23 -23 -23 -22 -22 -21 -21 -21 -20 -20 -20 -19 -18 -18 -18 -18 -17 -16 -16 -15 -14 -15 -15 -15 -14 -14 -14 -15 -15 -16 -16 -16 -16 -16 -16 -16 -16 -17 -18
-20 -20 -20 -21 -22 -23 -23 -22 -21 -21 -21 -21 -20 -19 -19 -18 -18 -19 -19 -18 -17 -17 -16 -15 -16 -15 -15 -15 -15 -16 -16 -16 -15 -16 -16 -16 -16 -17 -17 -17 -18 -18 -18
-20 -20 -20 -20 -21 -22 -22 -22 -21 -21 -21 -20 -20 -19 -19 -18 -19 -19 -19 -19 -17 -18 -16 -17 -16 -16 -16 -16 -16 -16 -17 -17 -17 -17 -17 -17 -17 -17 -18 -18 -18 -19 -20
-20 -20 -20 -20 -21 -21 -21 -20 -20 -20 -21 -21 -21 -20 -19 -19 -19 -18 -19 -19 -18 -18 -17 -17 -16 -16 -16 -17 -17 -17 -17 -17 -17 -17 -17 -17 -18 -18 -18 -19 -19 -19 -20
-20 -20 -20 -20 -20 -20 -20 -20 -20 -20 -20 -21 -20 -20 -20 -19 -19 -19 -19 -19 -18 -17 -18 -16 -17 -17 -17 -17 -17 -17 -17 -17 -17 -17 -17 -18 -18 -19 -19 -19 -20 -20 -21
-20 -20 -20 -20 -19 -19 -20 -19 -20 -20 -20 -19 -19 -20 -20 -20 -19 -20 -19 -19 -18 -17 -17 -17 -17 -17 -17 -17 -17 -17 -18 -18 -18 -18 -19 -19 -19 -19 -20 -20 -20 -21 -21
-20 -20 -20 -20 -20 -20 -20 -19 -19 -19 -20 -20 -20 -20 -20 -19 -19 -19 -19 -18 -17 -18 -18 -17 -17 -18 -18 -18 -18 -18 -19 -19 -19 -19 -19 -19 -20 -20 -21 -21 -21 -21 -22
-21 -20 -20 -20 -20 -20 -20 -20 -19 -19 -19 -19 -19 -19 -19 -19 -18 -19 -18 -18 -18 -18 -18 -18 -18 -18 -18 -19 -19 -19 -19 -19 -19 -20 -20 -20 -21 -21 -21 -21 -21 -21 -22
-20 -21 -21 -21 -21 -20 -20 -20 -20 -20 -20 -19 -19 -19 -19 -19 -19 -19 -19 -19 -19 -18 -19 -19 -20 -20 -20 -19 -19 -20 -20 -20 -20 -20 -20 -21 -21 -21 -21 -22 -22 -22 -22
-20 -21 -21 -21 -21 -21 -21 -21 -21 -21 -21 -20 -20 -20 -20 -20 -20 -20 -20 -20 -20 -20 -20 -19 -19 -19 -19 -20 -20 -20 -20 -20 -20 -21 -21 -21 -21 -21 -21 -21 -22 -22 -23
-21 -21 -21 -21 -21 -21 -21 -21 -20 -20 -20 -21 -21 -20 -20 -20 -20 -20 -20 -20 -19 -19 -19 -19 -19 -20 -20 -20 -19 -19 -19 -19 -20 -20 -20 -20 -21 -21 -21 -22 -22 -23 -23
-21 -21 -21 -21 -21 -21 -21 -21 -20 -21 -21 -21 -21 -20 -20 -20 -20 -20 -20 -20 -20 -20 -20 -20 -20 -20 -19 -19 -19 -19 -19 -20 -20 -20 -21 -21 -21 -22 -22 -22 -23 -23 -24
-20 -20 -21 -21 -21 -21 -21 -21 -21 -21 -21 -21 -21 -21 -20 -20 -20 -20 -20 -20 -20 -20 -20 -20 -20 -20 -20 -20 -20 -20 -20 -20 -21 -21 -21 -21 -22 -22 -22 -23 -23 -23 -24
-20 -20 -20 -21 -21 -21 -21 -21 -21 -21 -21 -21 -21 -21 -21 -21 -21 -20 -20 -20 -20 -20 -20 -20 -20 -20 -20 -20 -20 -20 -20 -20 -21 -21 -22 -22 -22 -22 -23 -23 -23 -23 -24
-20 -20 -20 -20 -20 -20 -20 -20 -20 -20 -20 -20 -20 -20 -20 -20 -20 -20 -20 -20 -20 -20 -20 -20 -20 -20 -20 -20 -20 -21 -21 -21 -22 -22 -22 -22 -23 -23 -23 -23 -24 -24 -24
-19 -19 -19 -20 -20 -20 -20 -20 -20 -20 -20 -20 -20 -20 -20 -20 -20 -20 -20 -20 -20 -20 -20 -20 -20 -20 -21 -21 -21 -21 -22 -22 -22 -22 -23 -23 -23 -24 -24 -24 -24 -24 -25
-20 -20 -20 -20 -20 -20 -20 -20 -20 -20 -20 -20 -20 -20 -20 -20 -20 -20 -20 -20 -20 -20 -20 -20 -21 -21 -21 -21 -22 -22 -22 -23 -23 -23 -23 -24 -24 -24 -24 -24 -25 -25 -26
-20 -20 -20 -20 -20 -20 -20 -20 -20 -20 -20 -20 -20 -20 -20 -20 -20 -20 -20 -20 -21 -21 -21 -21 -22 -22 -22 -22 -23 -23 -23 -23 -23 -24 -24 -24 -24 -25 -25 -25 -26 -27 -27
-20 -20 -20 -20 -20 -20 -20 -20 -20 -20 -20 -20 -20 -20 -20 -20 -20 -21 -21 -21 -21 -22 -22 -22 -22 -23 -23 -23 -23 -23 -23 -24 -24 -25 -25 -25 -25 -25 -26 -27 -27 -27 -28
-20 -20 -20 -20 -20 -20 -20 -20 -20 -20 -20 -20 -20 -20 -21 -21 -21 -21 -22 -22 -22 -22 -22 -22 -23 -23 -23 -23 -24 -24 -24 -25 -25 -25 -26 -26 -26 -27 -27 -28 -28 -28 -29
-20 -20 -20 -20 -20 -20 -20 -21 -21 -21 -21 -21 -21 -21 -22 -22 -22 -22 -22 -22 -23 -23 -23 -23 -23 -24 -24 -24 -25 -25 -26 -26 -26 -26 -26 -27 -27 -28 -28 -28 -29 -29 -30
-20 -20 -21 -21 -21 -21 -21 -21 -21 -22 -22 -22 -22 -22 -22 -23 -23 -23 -23 -23 -23 -23 -24 -24 -24 -25 -25 -26 -26 -26 -26 -27 -27 -27 -28 -28 -28 -29 -29 -29 -30 -31 -31

GFSGL_500_temp_276.txt.gz
Temp
-19 -19 -20 -20 -21 -22 -22 -22 -22 -22 -22 -23 -23 -22 -21 -20 -19 -17 -17 -18 -18 -16 -14 -15 -15 -15 -14 -15 -14 -14 -14 -14 -14 -14 -14 -15 -15 -15 -15 -16 -16 -16 -16
-19 -19 -20 -20 -21 -22 -23 -22 -22 -22 -22 -22 -23 -22 -20 -20 -19 -17 -17 -17 -18 -17 -16 -14 -16 -14 -15 -15 -14 -14 -14 -14 -14 -14 -14 -15 -15 -15 -15 -16 -16 -16 -16
-19 -19 -20 -20 -21 -22 -23 -22 -23 -22 -22 -22 -22 -22 -20 -20 -18 -17 -17 -17 -17 -18 -18 -15 -15 -15 -15 -15 -14 -15 -16 -15 -15 -14 -14 -15 -15 -15 -16 -16 -16 -16 -16
-20 -19 -20 -20 -22 -22 -22 -22 -22 -22 -22 -22 -21 -21 -20 -20 -19 -18 -17 -18 -18 -18 -17 -17 -16 -15 -15 -15 -15 -15 -15 -15 -15 -14 -15 -15 -15 -15 -16 -16 -16 -16 -16
-19 -20 -19 -20 -20 -21 -22 -22 -22 -22 -22 -21 -21 -21 -20 -20 -19 -19 -19 -18 -18 -18 -18 -18 -18 -17 -18 -16 -14 -15 -15 -15 -15 -15 -15 -14 -15 -15 -16 -16 -16 -16 -16
-19 -20 -20 -20 -20 -20 -21 -22 -22 -22 -22 -22 -21 -21 -21 -20 -20 -19 -19 -18 -18 -18 -19 -18 -17 -16 -16 -15 -15 -16 -16 -15 -15 -15 -15 -15 -15 -16 -16 -16 -16 -16 -16
-19 -20 -20 -20 -20 -20 -20 -21 -22 -22 -21 -21 -21 -21 -21 -20 -20 -19 -18 -18 -18 -18 -19 -18 -17 -17 -16 -15 -16 -16 -16 -15 -16 -16 -16 -16 -16 -17 -17 -17 -17 -17 -17
-19 -20 -20 -20 -19 -20 -20 -21 -21 -21 -22 -21 -21 -20 -20 -19 -19 -19 -19 -19 -19 -18 -19 -18 -18 -17 -16 -17 -16 -16 -16 -16 -17 -17 -17 -17 -17 -17 -17 -17 -17 -18 -18
-20 -20 -20 -20 -20 -20 -20 -19 -19 -20 -20 -21 -20 -20 -20 -20 -20 -20 -20 -19 -20 -19 -19 -18 -18 -18 -17 -17 -16 -16 -16 -17 -17 -17 -17 -17 -17 -18 -18 -18 -19 -19 -20
-20 -20 -19 -20 -20 -20 -20 -19 -20 -20 -21 -21 -20 -20 -20 -20 -20 -19 -20 -20 -19 -19 -20 -18 -18 -18 -17 -18 -18 -17 -17 -17 -17 -18 -18 -18 -18 -19 -19 -19 -19 -20 -20
-20 -20 -20 -20 -20 -20 -19 -20 -20 -19 -20 -20 -20 -20 -20 -19 -19 -20 -19 -19 -20 -19 -19 -18 -18 -18 -17 -17 -18 -17 -17 -17 -18 -19 -19 -19 -19 -19 -19 -20 -20 -20 -20
-21 -21 -20 -20 -20 -20 -20 -20 -20 -20 -20 -20 -20 -20 -20 -20 -19 -19 -18 -19 -19 -19 -19 -18 -18 -18 -18 -19 -19 -19 -19 -19 -19 -19 -19 -19 -19 -19 -20 -20 -20 -20 -21
-21 -21 -21 -21 -21 -21 -21 -21 -21 -20 -20 -20 -20 -20 -20 -20 -19 -19 -19 -19 -19 -18 -19 -19 -19 -19 -19 -19 -19 -19 -19 -19 -19 -19 -19 -20 -20 -20 -20 -20 -21 -21 -21
-21 -21 -21 -21 -21 -21 -21 -21 -21 -21 -20 -20 -20 -20 -20 -20 -20 -20 -20 -20 -20 -20 -20 -20 -20 -20 -20 -20 -20 -20 -20 -20 -20 -19 -19 -20 -20 -20 -21 -21 -22 -22 -22
-21 -21 -21 -21 -21 -21 -21 -21 -21 -21 -21 -21 -21 -21 -21 -21 -21 -20 -20 -20 -20 -20 -21 -21 -21 -21 -21 -21 -21 -20 -21 -21 -21 -21 -21 -21 -21 -21 -22 -22 -22 -22 -22
-21 -21 -21 -21 -21 -21 -21 -21 -21 -21 -21 -21 -21 -21 -21 -21 -21 -21 -21 -21 -21 -21 -21 -21 -21 -21 -21 -21 -20 -20 -21 -21 -21 -21 -21 -21 -21 -22 -22 -22 -22 -22 -23
-20 -20 -20 -20 -20 -20 -20 -20 -21 -21 -21 -21 -21 -21 -21 -21 -20 -20 -21 -21 -21 -21 -21 -21 -21 -20 -20 -20 -20 -20 -21 -21 -21 -21 -21 -21 -21 -22 -22 -22 -23 -23 -23
-20 -20 -20 -20 -20 -20 -20 -20 -20 -20 -20 -20 -20 -20 -20 -20 -20 -20 -20 -20 -20 -20 -20 -20 -20 -20 -20 -20 -20 -20 -20 -21 -21 -21 -21 -22 -22 -22 -22 -23 -23 -23 -24
-19 -20 -20 -20 -20 -20 -20 -20 -20 -20 -20 -20 -20 -20 -20 -20 -20 -20 -20 -20 -20 -20 -20 -20 -20 -20 -20 -20 -21 -21 -21 -21 -21 -22 -22 -22 -23 -23 -23 -23 -23 -23 -24
-19 -19 -19 -19 -20 -20 -20 -20 -20 -20 -20 -20 -20 -20 -20 -20 -20 -20 -20 -20 -20 -20 -20 -20 -20 -20 -21 -21 -21 -21 -22 -22 -22 -22 -22 -22 -23 -23 -23 -24 -24 -24 -24
-19 -20 -20 -20 -20 -20 -20 -20 -20 -20 -20 -20 -20 -20 -20 -20 -20 -20 -20 -20 -20 -20 -20 -21 -21 -21 -21 -22 -22 -22 -22 -22 -23 -23 -23 -23 -23 -24 -24 -25 -25 -25 -25
-20 -20 -20 -20 -20 -20 -20 -20 -20 -20 -20 -20 -20 -20 -20 -20 -20 -20 -20 -20 -21 -21 -21 -21 -21 -21 -22 -22 -22 -22 -23 -23 -23 -23 -24 -24 -24 -25 -25 -25 -25 -26 -26
-20 -20 -20 -20 -20 -20 -20 -20 -20 -20 -20 -21 -21 -21 -21 -21 -21 -21 -21 -21 -21 -21 -22 -22 -22 -22 -22 -23 -23 -23 -23 -23 -24 -24 -24 -25 -25 -26 -26 -26 -26 -26 -26
-20 -20 -20 -20 -20 -20 -20 -20 -20 -21 -21 -21 -21 -21 -21 -21 -21 -22 -22 -22 -23 -23 -23 -23 -23 -23 -23 -23 -24 -24 -24 -24 -24 -25 -25 -26 -26 -26 -26 -26 -26 -27 -28
-20 -20 -20 -20 -20 -21 -21 -21 -21 -21 -21 -21 -21 -22 -22 -22 -22 -22 -23 -23 -23 -23 -23 -24 -24 -24 -24 -24 -24 -25 -25 -25 -25 -26 -26 -27 -27 -26 -27 -27 -28 -28 -28
-20 -21 -21 -21 -21 -21 -22 -22 -22 -22 -22 -22 -23 -23 -23 -23 -24 -24 -24 -24 -24 -24 -24 -25 -25 -25 -25 -25 -25 -25 -26 -26 -27 -27 -27 -27 -27 -27 -28 -28 -28 -29 -30

GFSGL_500_temp_279.txt.gz
Temp
-18 -19 -19 -19 -18 -19 -19 -19 -21 -22 -22 -22 -22 -22 -22 -23 -23 -23 -22 -22 -21 -19 -18 -18 -18 -16 -15 -15 -15 -15 -15 -15 -15 -14 -14 -14 -14 -15 -15 -15 -15 -15 -16
-19 -19 -19 -19 -19 -19 -19 -20 -21 -21 -22 -22 -22 -22 -22 -23 -23 -24 -22 -22 -21 -19 -18 -18 -18 -18 -17 -16 -15 -15 -15 -15 -14 -14 -14 -14 -15 -15 -15 -15 -15 -16 -16
-19 -19 -19 -19 -19 -19 -20 -20 -21 -22 -22 -22 -22 -23 -23 -23 -24 -23 -22 -22 -21 -19 -18 -18 -18 -18 -18 -17 -16 -15 -16 -16 -15 -15 -15 -15 -14 -15 -15 -14 -15 -15 -16
-19 -19 -19 -19 -19 -19 -19 -20 -21 -21 -22 -22 -22 -22 -23 -23 -23 -22 -21 -21 -20 -19 -18 -18 -18 -18 -18 -18 -18 -17 -17 -16 -15 -15 -15 -15 -15 -15 -15 -15 -15 -15 -16
-19 -19 -19 -19 -19 -19 -19 -21 -21 -21 -22 -22 -22 -22 -21 -22 -22 -21 -21 -21 -20 -18 -18 -18 -18 -18 -18 -18 -18 -17 -17 -16 -15 -15 -15 -15 -14 -14 -15 -15 -15 -15 -16
-20 -19 -19 -19 -19 -19 -19 -20 -21 -21 -22 -22 -22 -22 -22 -21 -21 -21 -21 -20 -20 -19 -18 -18 -19 -19 -19 -20 -19 -18 -17 -16 -16 -15 -15 -15 -14 -15 -15 -15 -15 -16 -16
-20 -19 -19 -20 -19 -19 -19 -20 -20 -20 -21 -21 -21 -21 -22 -22 -22 -21 -21 -20 -20 -19 -18 -18 -19 -19 -19 -19 -19 -18 -17 -17 -16 -15 -15 -15 -15 -15 -15 -15 -16 -16 -17
-20 -20 -20 -20 -19 -19 -19 -20 -20 -21 -21 -21 -21 -21 -21 -21 -21 -21 -20 -19 -19 -18 -18 -18 -19 -19 -19 -20 -19 -18 -18 -19 -17 -16 -15 -15 -14 -16 -16 -16 -17 -17 -17
-20 -20 -20 -20 -20 -19 -19 -20 -20 -20 -20 -20 -20 -20 -20 -20 -20 -20 -20 -19 -18 -18 -18 -18 -19 -19 -19 -19 -17 -17 -17 -17 -17 -17 -16 -16 -17 -16 -16 -17 -17 -17 -18
-20 -20 -20 -20 -20 -20 -19 -19 -19 -20 -20 -20 -20 -20 -21 -20 -20 -20 -20 -20 -20 -19 -19 -20 -19 -19 -19 -20 -18 -17 -17 -17 -16 -17 -17 -17 -17 -17 -17 -18 -18 -19 -20
-21 -21 -20 -20 -20 -20 -20 -20 -19 -20 -20 -20 -20 -20 -20 -20 -20 -20 -20 -20 -20 -20 -19 -19 -19 -19 -19 -18 -18 -18 -18 -17 -17 -17 -18 -18 -18 -19 -20 -20 -19 -19 -19
-21 -21 -21 -21 -21 -21 -20 -20 -20 -20 -20 -20 -20 -20 -20 -20 -20 -20 -19 -20 -19 -19 -19 -19 -19 -19 -18 -18 -18 -18 -18 -18 -18 -19 -20 -19 -19 -20 -19 -19 -19 -19 -20
-21 -21 -21 -21 -20 -21 -21 -21 -21 -21 -21 -20 -20 -20 -20 -20 -20 -20 -20 -20 -20 -20 -20 -20 -20 -19 -19 -20 -20 -20 -20 -20 -20 -19 -19 -19 -20 -20 -20 -20 -20 -20 -20
-21 -21 -20 -20 -20 -20 -20 -21 -21 -21 -21 -21 -21 -21 -21 -21 -21 -21 -21 -22 -22 -22 -21 -20 -20 -21 -21 -20 -20 -20 -20 -20 -20 -20 -20 -20 -20 -20 -20 -21 -21 -21 -21
-20 -20 -20 -20 -20 -20 -20 -20 -20 -20 -20 -20 -21 -21 -21 -21 -21 -21 -21 -21 -21 -20 -20 -20 -20 -20 -20 -20 -20 -20 -20 -20 -20 -20 -20 -20 -20 -20 -21 -21 -21 -21 -21
-20 -20 -20 -20 -20 -20 -20 -20 -20 -20 -20 -20 -20 -20 -20 -20 -20 -20 -20 -20 -20 -20 -20 -20 -20 -20 -20 -20 -20 -20 -20 -20 -20 -20 -21 -21 -21 -21 -22 -22 -22 -22 -23
-20 -20 -19 -19 -20 -20 -20 -20 -20 -21 -21 -21 -21 -20 -20 -20 -20 -20 -20 -20 -20 -20 -20 -20 -20 -20 -20 -20 -20 -20 -20 -21 -21 -21 -21 -21 -22 -22 -23 -23 -23 -23 -23
-20 -20 -20 -20 -20 -20 -20 -20 -20 -20 -20 -20 -20 -20 -20 -20 -20 -21 -21 -20 -20 -20 -20 -20 -20 -20 -21 -21 -21 -21 -21 -21 -21 -21 -21 -22 -22 -23 -23 -23 -23 -23 -23
-19 -19 -20 -20 -20 -20 -20 -20 -20 -20 -20 -20 -20 -20 -20 -20 -20 -20 -20 -20 -20 -20 -20 -20 -20 -20 -21 -21 -21 -21 -21 -21 -22 -22 -22 -22 -23 -23 -23 -23 -23 -23 -23
-19 -19 -19 -20 -20 -20 -20 -20 -20 -20 -20 -20 -20 -20 -20 -20 -20 -20 -20 -20 -20 -20 -21 -21 -21 -21 -21 -21 -21 -22 -22 -22 -22 -23 -23 -23 -23 -23 -23 -23 -23 -24 -24
-19 -19 -20 -20 -20 -20 -20 -20 -20 -20 -20 -20 -20 -20 -20 -20 -20 -20 -20 -20 -20 -20 -20 -21 -21 -21 -21 -22 -22 -23 -23 -23 -23 -23 -23 -23 -23 -23 -24 -24 -24 -24 -24
-19 -20 -20 -20 -20 -20 -20 -20 -20 -20 -20 -20 -20 -20 -21 -21 -21 -21 -21 -21 -21 -21 -21 -22 -22 -22 -22 -22 -23 -23 -23 -23 -23 -23 -24 -24 -24 -24 -24 -24 -24 -25 -25
-20 -20 -20 -20 -20 -20 -20 -20 -20 -20 -20 -21 -21 -21 -21 -21 -21 -21 -21 -21 -22 -22 -22 -23 -23 -23 -23 -23 -24 -24 -24 -24 -24 -24 -25 -25 -25 -25 -25 -25 -26 -26 -26
-20 -20 -20 -20 -20 -20 -20 -20 -20 -21 -21 -21 -21 -21 -21 -21 -22 -22 -22 -22 -23 -23 -23 -24 -24 -24 -24 -25 -25 -25 -25 -25 -25 -25 -25 -26 -26 -26 -26 -26 -27 -27 -27
-20 -20 -20 -20 -20 -20 -20 -21 -21 -21 -22 -22 -22 -22 -22 -22 -23 -23 -23 -23 -24 -24 -24 -25 -25 -25 -25 -25 -25 -26 -26 -26 -26 -26 -26 -26 -26 -27 -27 -27 -27 -27 -27
-21 -21 -21 -21 -21 -21 -21 -21 -21 -22 -22 -23 -23 -23 -23 -23 -23 -23 -24 -24 -24 -25 -25 -25 -26 -26 -26 -26 -26 -26 -26 -26 -27 -27 -27 -27 -27 -27 -27 -27 -28 -28 -28

GFSGL_500_temp_282.txt.gz
Temp
-20 -19 -19 -19 -19 -19 -19 -19 -18 -18 -19 -20 -20 -20 -20 -21 -22 -22 -22 -21 -21 -21 -21 -22 -22 -21 -19 -19 -18 -18 -17 -17 -15 -15 -15 -16 -15 -15 -15 -14 -15 -15 -15
-20 -19 -19 -19 -19 -19 -19 -18 -18 -18 -19 -20 -21 -20 -21 -22 -23 -23 -22 -22 -21 -22 -22 -23 -22 -22 -20 -19 -19 -18 -18 -17 -15 -15 -15 -16 -16 -16 -15 -15 -15 -15 -15
-20 -20 -19 -19 -20 -19 -19 -18 -18 -19 -19 -21 -21 -21 -22 -21 -22 -23 -23 -23 -23 -23 -23 -23 -23 -22 -21 -19 -19 -18 -17 -16 -16 -15 -15 -16 -16 -15 -15 -15 -15 -15 -15
-21 -20 -19 -19 -20 -19 -19 -19 -18 -19 -20 -20 -21 -21 -22 -22 -22 -23 -24 -24 -24 -24 -24 -23 -22 -22 -21 -20 -18 -18 -18 -17 -17 -16 -16 -16 -16 -15 -16 -15 -15 -15 -15
-21 -20 -20 -20 -19 -19 -19 -19 -19 -19 -19 -20 -21 -21 -21 -22 -22 -22 -23 -23 -24 -23 -23 -23 -22 -22 -21 -20 -19 -19 -19 -19 -17 -17 -16 -16 -17 -17 -16 -15 -15 -15 -15
-21 -20 -20 -20 -20 -19 -19 -19 -19 -19 -19 -20 -20 -21 -21 -22 -22 -22 -22 -23 -23 -23 -22 -22 -22 -21 -20 -19 -19 -19 -19 -18 -17 -16 -16 -16 -16 -16 -16 -16 -16 -16 -16
-21 -20 -20 -20 -20 -20 -19 -19 -19 -19 -20 -20 -20 -21 -21 -21 -22 -22 -22 -22 -21 -21 -21 -21 -20 -20 -19 -18 -18 -18 -19 -19 -19 -18 -17 -18 -16 -17 -17 -16 -16 -15 -15
-21 -20 -20 -20 -20 -20 -20 -19 -19 -19 -20 -20 -21 -20 -21 -21 -21 -22 -22 -22 -22 -21 -20 -19 -19 -19 -18 -18 -19 -19 -19 -20 -20 -19 -18 -17 -17 -17 -16 -16 -16 -16 -16
-21 -21 -20 -20 -20 -20 -20 -19 -19 -19 -20 -20 -19 -20 -21 -21 -21 -21 -21 -21 -21 -20 -19 -19 -19 -19 -19 -19 -19 -19 -19 -20 -19 -19 -18 -18 -17 -16 -16 -16 -16 -16 -16
-21 -21 -21 -21 -20 -20 -20 -19 -19 -19 -19 -19 -19 -20 -21 -21 -21 -21 -21 -21 -21 -20 -20 -21 -20 -19 -19 -19 -20 -20 -20 -20 -20 -19 -19 -18 -17 -16 -17 -17 -17 -17 -17
-20 -21 -21 -21 -20 -20 -20 -20 -19 -19 -19 -19 -20 -20 -20 -20 -20 -21 -20 -20 -20 -20 -20 -20 -20 -20 -19 -19 -20 -19 -19 -20 -19 -19 -18 -17 -17 -17 -17 -17 -18 -18 -19
-20 -20 -20 -20 -20 -20 -20 -20 -20 -19 -19 -20 -20 -19 -19 -19 -19 -20 -20 -20 -20 -20 -20 -19 -19 -19 -19 -19 -19 -19 -19 -19 -19 -19 -19 -19 -18 -18 -18 -19 -20 -21 -21
-20 -20 -20 -20 -20 -20 -20 -20 -20 -20 -20 -20 -21 -21 -21 -21 -21 -20 -20 -20 -20 -20 -20 -20 -20 -20 -20 -20 -20 -20 -20 -20 -20 -20 -20 -20 -21 -20 -20 -20 -20 -20 -20
-19 -20 -20 -20 -20 -20 -20 -20 -21 -21 -21 -21 -21 -21 -20 -21 -21 -21 -21 -21 -21 -21 -21 -21 -21 -22 -22 -22 -21 -22 -22 -21 -21 -21 -20 -20 -20 -20 -20 -20 -20 -20 -20
-19 -20 -20 -20 -20 -20 -20 -20 -20 -20 -20 -20 -20 -20 -20 -20 -20 -20 -20 -20 -20 -20 -20 -20 -20 -20 -20 -20 -20 -20 -20 -20 -20 -20 -20 -20 -20 -20 -20 -20 -20 -20 -20
-19 -19 -19 -20 -20 -19 -20 -20 -20 -20 -20 -20 -20 -20 -20 -20 -20 -20 -20 -21 -20 -20 -20 -20 -20 -20 -20 -20 -20 -20 -20 -20 -20 -20 -20 -20 -20 -20 -20 -20 -20 -21 -21
-19 -19 -19 -19 -19 -20 -20 -20 -20 -20 -20 -20 -20 -20 -20 -20 -20 -20 -20 -20 -20 -20 -20 -20 -20 -20 -20 -20 -20 -20 -20 -20 -20 -20 -20 -21 -21 -21 -21 -21 -21 -21 -22
-19 -19 -19 -19 -19 -20 -20 -20 -20 -20 -20 -20 -20 -20 -20 -20 -20 -20 -20 -20 -20 -20 -20 -20 -20 -20 -20 -20 -20 -20 -20 -20 -20 -20 -21 -21 -21 -21 -22 -22 -22 -22 -22
-19 -19 -19 -19 -20 -20 -20 -20 -20 -20 -20 -20 -20 -20 -20 -20 -20 -20 -20 -20 -20 -20 -20 -20 -20 -20 -20 -20 -20 -20 -20 -20 -20 -21 -21 -21 -22 -22 -22 -22 -22 -23 -23
-19 -19 -19 -19 -20 -20 -20 -20 -20 -20 -20 -20 -20 -20 -20 -20 -20 -20 -20 -21 -21 -21 -21 -21 -21 -21 -21 -21 -21 -21 -21 -22 -22 -22 -22 -22 -22 -23 -23 -23 -23 -23 -24
-19 -19 -19 -20 -20 -20 -20 -20 -20 -20 -20 -20 -20 -20 -20 -20 -20 -20 -20 -20 -21 -21 -21 -21 -21 -21 -21 -21 -22 -22 -22 -23 -23 -23 -23 -23 -23 -24 -24 -24 -24 -24 -25
-19 -19 -19 -19 -20 -20 -20 -20 -20 -20 -20 -20 -20 -21 -21 -21 -21 -21 -21 -21 -21 -21 -21 -22 -22 -22 -22 -22 -22 -23 -23 -24 -24 -24 -25 -25 -25 -25 -25 -25 -25 -26 -26
-19 -19 -19 -19 -20 -20 -20 -20 -20 -20 -20 -20 -21 -21 -21 -21 -21 -21 -22 -22 -22 -22 -22 -22 -22 -22 -23 -23 -23 -24 -24 -25 -25 -25 -25 -25 -26 -26 -26 -26 -26 -26 -26
-20 -20 -20 -20 -20 -20 -20 -20 -20 -20 -21 -21 -21 -21 -21 -21 -22 -22 -22 -22 -23 -22 -23 -23 -23 -23 -23 -24 -24 -24 -25 -25 -25 -25 -26 -26 -26 -26 -26 -27 -27 -26 -27
-21 -20 -21 -21 -21 -21 -21 -21 -21 -21 -21 -21 -21 -22 -22 -22 -22 -22 -22 -22 -23 -23 -24 -24 -24 -24 -24 -25 -25 -25 -26 -26 -26 -26 -26 -26 -27 -27 -27 -27 -27 -27 -27
-20 -21 -22 -22 -21 -21 -21 -21 -22 -22 -22 -22 -22 -22 -23 -23 -23 -23 -23 -23 -23 -24 -24 -24 -24 -24 -25 -25 -25 -25 -26 -26 -26 -27 -27 -27 -27 -27 -28 -28 -28 -28 -28

GFSGL_500_temp_285.txt.gz
Temp
-17 -18 -20 -20 -19 -19 -19 -19 -19 -19 -19 -18 -18 -18 -19 -20 -20 -20 -20 -20 -20 -20 -21 -21 -21 -21 -21 -21 -21 -19 -19 -17 -16 -16 -16 -16 -16 -16 -15 -15 -15 -15 -14
-18 -19 -21 -20 -19 -19 -19 -19 -19 -19 -19 -18 -18 -18 -19 -20 -20 -21 -21 -21 -21 -21 -23 -23 -22 -22 -22 -22 -22 -20 -20 -19 -17 -17 -17 -17 -16 -15 -15 -15 -15 -16 -16
-19 -21 -20 -20 -20 -19 -19 -19 -19 -19 -19 -18 -19 -19 -20 -20 -20 -21 -21 -21 -21 -23 -24 -23 -23 -23 -22 -23 -22 -21 -21 -21 -19 -18 -18 -17 -16 -16 -16 -15 -15 -15 -16
-20 -21 -20 -20 -20 -19 -19 -19 -19 -19 -18 -19 -19 -20 -20 -20 -21 -21 -21 -21 -22 -23 -24 -23 -23 -23 -23 -23 -23 -22 -22 -22 -20 -19 -18 -18 -19 -19 -17 -17 -16 -15 -16
-21 -21 -20 -20 -20 -20 -19 -19 -19 -18 -19 -19 -19 -20 -20 -20 -21 -21 -21 -22 -23 -23 -24 -24 -23 -23 -23 -23 -24 -23 -23 -22 -21 -19 -18 -19 -19 -19 -19 -17 -16 -16 -16
-20 -20 -20 -20 -20 -20 -19 -19 -18 -19 -19 -19 -19 -19 -20 -20 -21 -21 -21 -22 -22 -23 -23 -24 -24 -23 -24 -24 -23 -23 -23 -22 -21 -20 -20 -20 -19 -18 -18 -17 -17 -17 -16
-20 -20 -20 -20 -20 -20 -20 -19 -18 -19 -19 -19 -19 -20 -20 -20 -20 -21 -21 -22 -22 -22 -23 -23 -23 -23 -23 -23 -23 -23 -22 -22 -21 -20 -20 -19 -19 -18 -18 -17 -17 -17 -16
-20 -20 -20 -20 -20 -20 -20 -19 -19 -19 -19 -19 -19 -20 -20 -20 -20 -21 -21 -21 -22 -22 -22 -22 -22 -22 -23 -22 -22 -22 -22 -21 -21 -20 -20 -19 -19 -19 -18 -17 -17 -17 -17
-20 -20 -20 -20 -20 -20 -20 -19 -19 -19 -19 -19 -19 -19 -20 -20 -20 -21 -21 -21 -21 -21 -21 -21 -22 -22 -22 -22 -22 -21 -20 -20 -20 -19 -19 -19 -19 -19 -19 -19 -18 -18 -18
-19 -20 -20 -20 -20 -20 -20 -20 -19 -19 -18 -18 -18 -19 -19 -20 -20 -20 -20 -20 -20 -21 -21 -21 -21 -21 -21 -21 -21 -21 -21 -21 -20 -20 -19 -20 -20 -20 -19 -19 -18 -18 -19
-19 -20 -20 -20 -20 -20 -20 -20 -20 -20 -20 -20 -20 -20 -20 -20 -20 -20 -20 -20 -20 -20 -20 -20 -21 -21 -21 -21 -21 -20 -20 -20 -20 -20 -20 -20 -20 -20 -20 -19 -19 -19 -18
-18 -19 -19 -20 -20 -20 -20 -20 -20 -20 -20 -20 -20 -20 -20 -20 -21 -21 -21 -20 -20 -20 -20 -20 -20 -20 -20 -20 -20 -20 -20 -20 -20 -20 -20 -20 -20 -20 -20 -20 -19 -18 -19
-17 -18 -19 -19 -19 -20 -20 -20 -20 -20 -20 -20 -20 -20 -20 -20 -20 -20 -21 -20 -21 -21 -21 -21 -21 -21 -21 -21 -21 -21 -21 -21 -21 -21 -21 -21 -21 -21 -20 -21 -21 -22 -22
-18 -18 -18 -19 -19 -19 -20 -20 -20 -20 -20 -20 -20 -20 -20 -20 -20 -21 -21 -21 -21 -20 -20 -20 -20 -20 -20 -20 -20 -21 -21 -21 -21 -21 -21 -21 -22 -21 -21 -21 -21 -20 -20
-18 -18 -18 -19 -19 -19 -19 -19 -20 -20 -20 -20 -20 -20 -20 -20 -20 -20 -20 -20 -20 -20 -20 -20 -21 -21 -21 -21 -21 -20 -20 -20 -20 -20 -20 -20 -20 -20 -20 -20 -20 -20 -20
-18 -18 -18 -18 -19 -19 -19 -19 -19 -20 -20 -20 -20 -20 -20 -20 -20 -20 -20 -20 -20 -20 -20 -20 -20 -20 -20 -20 -20 -21 -20 -21 -21 -21 -21 -21 -21 -20 -21 -21 -21 -21 -21
-18 -18 -18 -19 -19 -19 -19 -19 -20 -20 -20 -20 -20 -20 -20 -20 -20 -20 -20 -20 -20 -20 -20 -20 -20 -20 -20 -20 -20 -20 -20 -21 -20 -20 -20 -21 -21 -21 -21 -21 -21 -21 -21
-18 -18 -19 -19 -19 -19 -19 -20 -20 -20 -20 -20 -20 -20 -20 -20 -20 -20 -20 -20 -20 -20 -20 -20 -20 -20 -20 -20 -20 -20 -20 -20 -20 -20 -20 -20 -21 -20 -21 -21 -21 -22 -22
-18 -18 -19 -19 -19 -19 -20 -20 -20 -20 -20 -20 -20 -20 -20 -20 -20 -20 -20 -20 -20 -20 -20 -20 -21 -20 -20 -21 -21 -21 -21 -21 -21 -21 -21 -22 -22 -22 -22 -22 -22 -22 -22
-18 -19 -19 -19 -19 -19 -19 -20 -20 -20 -20 -20 -20 -20 -20 -20 -20 -20 -20 -20 -20 -20 -21 -21 -21 -21 -21 -21 -21 -21 -21 -21 -22 -22 -22 -22 -22 -22 -22 -23 -23 -23 -24
-19 -18 -19 -19 -19 -19 -19 -19 -19 -20 -20 -20 -20 -20 -20 -20 -20 -20 -20 -21 -20 -21 -21 -21 -21 -21 -22 -22 -22 -22 -22 -22 -22 -22 -22 -23 -23 -23 -23 -23 -23 -24 -24
-19 -19 -19 -19 -19 -19 -19 -19 -20 -20 -20 -20 -20 -20 -20 -20 -20 -21 -21 -21 -21 -21 -21 -21 -22 -22 -22 -22 -22 -22 -22 -23 -23 -23 -23 -23 -23 -23 -24 -24 -24 -24 -25
-20 -19 -19 -20 -20 -20 -20 -20 -20 -20 -20 -20 -20 -21 -21 -21 -21 -21 -21 -21 -21 -22 -22 -22 -22 -22 -22 -23 -23 -23 -23 -23 -23 -24 -24 -24 -24 -24 -24 -24 -25 -25 -26
-20 -20 -20 -20 -20 -20 -21 -20 -21 -21 -21 -21 -21 -21 -21 -22 -22 -22 -22 -22 -22 -23 -22 -22 -23 -23 -23 -23 -23 -23 -23 -24 -24 -24 -24 -25 -25 -25 -25 -25 -26 -26 -26
-20 -20 -20 -20 -20 -20 -20 -21 -21 -22 -22 -22 -22 -22 -22 -22 -22 -23 -23 -23 -23 -23 -23 -23 -24 -24 -24 -24 -24 -24 -24 -24 -24 -25 -25 -25 -25 -25 -26 -26 -26 -27 -27
-21 -21 -21 -21 -21 -20 -20 -20 -21 -22 -22 -22 -22 -23 -23 -23 -23 -24 -24 -24 -24 -24 -24 -24 -24 -24 -24 -24 -24 -25 -25 -25 -25 -25 -25 -26 -26 -26 -26 -27 -27 -27 -27